User: anonymous   Login
Location: Bojarzin Observatory
(39.7980°N, 89.7627°W)
Time: 21:30:57
(UTC-06:00)
Language:

ISS - Orbit

View from above orbital plane
View from above orbital plane
View from above satellite
View from above satellite

Ground track
Ground track

The orbit data is extracted from the following two-line orbital elements,

1 25544U 98067A   15060.67451455  .00013419  00000-0  20341-3 0  9990
2 25544 051.6439 261.0153 0007788 059.4350 056.9404 15.54935621931309
Epoch (UTC): 01 March 2015 16:11:18
Eccentricity: 0.0007788
inclination: 51.6439°
perigee height: 397 km
apogee height: 407 km
right ascension of ascending node: 261.0153°
argument of perigee: 59.4350°
revolutions per day: 15.54935621
mean anomaly at epoch: 56.9404°
orbit number at epoch: 93130

The dashed part of the orbit path shows where the satellite is in the earth's shadow,  

DLR